Home > Weather > Leiden > Past weeks

Flag for Netherlands Past Weather in Leiden, Netherlands — Yesterday and Last 2 Weeks

Now
64 °F

Low clouds.


Feels Like: 64 °F
Forecast: 59 / 69 °F
Wind: 3 mph from West

Location: Rotterdam Zestienhoven Airport

Current Time: Jul 24, 2016 at 8:53:51 AM

Latest Report: Jul 24, 2016 at 7:55 AM


Visibility: 4 mi

Pressure: 30.09 "Hg

Humidity: 94%

Dew Point: 63 °F

Location of LeidenLocation

Past Weather in Leiden — Graph

°F

Leiden Temperature Yesterday

Maximum temperature yesterday: 75 °F (at 12:25 PM)
Minimum temperature yesterday: 64 °F (at 9:55 PM)
Average temperature yesterday: 69 °F

High & Low Weather Summary for the Past Weeks

 TemperatureHumidityPressure
High91 °F (Jul 20, 2:25 PM)100% (Jul 18, 12:25 AM)30.27 "Hg (Jul 18, 12:25 AM)
Low50 °F (Jul 14, 3:55 AM)38% (Jul 20, 2:55 PM)29.74 "Hg (Jul 11, 12:25 AM)
Average67 °F75%30.03 "Hg
* Reported Jul 9 7:25 AM — Jul 24 7:25 AM, Leiden, Weather by CustomWeather, © 2016

Note: Actual official high and low records may vary slightly from our data, if they occured in-between our weather recording intervals... More about our weather records

Advertising

Leiden Weather History for the Previous 24 Hours

Scroll right to see more
 ConditionsComfort  
Time TempWeatherWind HumidityBarometerVisibility
7:25 AM
Sun, Jul 24
64 °FLow clouds.3 mph94%30.09 "Hg4 mi
6:55 AM64 °FLow clouds.3 mph94%30.09 "Hg4 mi
6:25 AM64 °FLow clouds.3 mph94%30.09 "Hg4 mi
5:55 AM64 °FLow clouds.2 mph94%30.09 "Hg4 mi
5:25 AM64 °FRain showers. Low clouds.2 mph94%30.12 "Hg4 mi
4:55 AM64 °FLow clouds.2 mph94%30.12 "Hg6 mi
4:25 AM64 °FLow clouds.2 mph94%30.12 "Hg6 mi
3:55 AM64 °FLow clouds.2 mph94%30.09 "Hg5 mi
3:25 AM64 °FLow clouds.3 mph94%30.12 "Hg6 mi
2:55 AM64 °FLow clouds.3 mph94%30.12 "HgN/A
2:25 AM64 °FLow clouds.2 mph94%30.12 "HgN/A
1:55 AM64 °FLow clouds.6 mph94%30.12 "HgN/A
1:25 AM64 °FOvercast.5 mph94%30.12 "HgN/A
12:55 AM64 °FOvercast.7 mph94%30.12 "HgN/A
12:25 AM64 °FMostly cloudy.8 mph94%30.12 "HgN/A
11:55 PM
Sat, Jul 23
64 °FMostly cloudy.6 mph94%30.12 "HgN/A
11:25 PM64 °FOvercast.5 mph94%30.12 "HgN/A
10:55 PM64 °FPassing clouds.2 mph94%30.12 "HgN/A
10:25 PM64 °FHeavy rain. Cloudy.2 mph94%30.09 "Hg3 mi
9:55 PM64 °FMild.3 mph94%30.09 "HgN/A
9:25 PM66 °FMild.3 mph88%30.09 "HgN/A
8:55 PM68 °FMild.5 mph83%30.09 "HgN/A
8:25 PM68 °FClear.6 mph83%30.09 "HgN/A
7:55 PM68 °FClear.7 mph83%30.09 "HgN/A
7:25 PM70 °FClear.8 mph78%30.09 "HgN/A
6:55 PM72 °FClear.9 mph73%30.09 "HgN/A
6:25 PM72 °FClear.8 mph73%30.09 "HgN/A
5:55 PM73 °FClear.8 mph74%30.09 "HgN/A
5:25 PM73 °FClear.8 mph74%30.09 "HgN/A
4:55 PM72 °FClear.8 mph78%30.09 "HgN/A
4:25 PM72 °FClear.8 mph73%30.09 "HgN/A
3:55 PM72 °FClear.9 mph78%30.09 "HgN/A
3:25 PM73 °FClear.9 mph74%30.09 "HgN/A
2:55 PM75 °FPassing clouds.10 mph69%30.09 "HgN/A
2:25 PM73 °FClear.8 mph74%30.09 "HgN/A
1:55 PM75 °FClear.9 mph74%30.09 "HgN/A
1:25 PM75 °FPartly sunny.7 mph69%30.09 "HgN/A
12:55 PM75 °FScattered clouds.2 mph65%30.09 "HgN/A
12:25 PM75 °FPassing clouds.5 mph69%30.09 "HgN/A
11:55 AM73 °FClear.5 mph74%30.09 "HgN/A
11:25 AM72 °FPassing clouds.6 mph78%30.09 "HgN/A
10:55 AM72 °FBroken clouds.6 mph78%30.09 "HgN/A
10:25 AM72 °FOvercast.5 mph78%30.09 "HgN/A
9:55 AM70 °FBroken clouds.7 mph83%30.09 "HgN/A
9:25 AM70 °FOvercast.8 mph83%30.07 "Hg6 mi
8:55 AM68 °FMostly cloudy.9 mph88%30.09 "Hg5 mi
8:25 AM68 °FMostly cloudy.6 mph88%30.07 "Hg4 mi
Weather by CustomWeather, © 2016

See weather overviewHow to use our weather pages